When you browse on this site, cookies collect data to enhance your experience and personalize the content and advertising you see.
Visit our Privacy Policy to learn more. By continuing to use the site, you agree to this use of cookies and data.
  • în România
  • Lista ţărilor
  • Pe 7 zile
  • Temperatura apei
  • Hartă satelitară
  • Meteo pe hartă
  • Widget-uri
  • user-avatar
    Intrare

    Meteo pe oră la Dedilovskie Vyselki

    Astăzi, 23 Iulie, Marţi

    Timp Temperatura Precipitaţii Vânt Presiune Umiditate
    00:00 +17°C° 0 mm 2 m/s 741 mmHg 82%
    01:00 +17°C° 0 mm 2 m/s 741 mmHg 84%
    02:00 +17°C° 0 mm 2 m/s 740 mmHg 86%
    03:00 +17°C° 0 mm 2 m/s 740 mmHg 93%
    04:00 +17°C° 0.7 mm 2 m/s 740 mmHg 94%
    05:00 +17°C° 0.7 mm 3 m/s 739 mmHg 94%
    06:00 +17°C° 0.7 mm 4 m/s 739 mmHg 94%
    07:00 +18°C° 0.8 mm 4 m/s 739 mmHg 94%
    08:00 +18°C° 0.8 mm 4 m/s 739 mmHg 93%
    09:00 +17°C° 0.8 mm 5 m/s 739 mmHg 92%
    10:00 +19°C° 0.6 mm 5 m/s 739 mmHg 89%
    11:00 +20°C° 0.6 mm 5 m/s 739 mmHg 87%
    12:00 +21°C° 0.6 mm 6 m/s 739 mmHg 85%
    13:00 +21°C° 1.7 mm 5 m/s 739 mmHg 83%
    14:00 +22°C° 1.7 mm 5 m/s 738 mmHg 82%
    15:00 +22°C° 1.7 mm 5 m/s 738 mmHg 80%
    16:00 +22°C° 0.5 mm 4 m/s 738 mmHg 81%
    17:00 +22°C° 0.5 mm 4 m/s 738 mmHg 82%
    18:00 +22°C° 0.5 mm 3 m/s 738 mmHg 83%
    19:00 +20°C° 0.1 mm 3 m/s 738 mmHg 86%
    20:00 +19°C° 0.1 mm 3 m/s 738 mmHg 89%
    21:00 +18°C° 0.1 mm 3 m/s 738 mmHg 92%
    22:00 +17°C° 0 mm 2 m/s 738 mmHg 92%
    23:00 +17°C° 0 mm 2 m/s 738 mmHg 93%

    Mâine, 24 Iulie, Miercuri

    Timp Temperatura Precipitaţii Vânt Presiune Umiditate
    00:00 +16°C° 0 mm 2 m/s 738 mmHg 93%
    01:00 +16°C° 0 mm 2 m/s 738 mmHg 93%
    02:00 +16°C° 0 mm 2 m/s 738 mmHg 93%
    03:00 +15°C° 0 mm 1 m/s 738 mmHg 93%
    04:00 +16°C° 0 mm 1 m/s 738 mmHg 93%
    05:00 +16°C° 0 mm 1 m/s 738 mmHg 93%
    06:00 +16°C° 0 mm 1 m/s 738 mmHg 93%
    07:00 +18°C° 0.2 mm 1 m/s 738 mmHg 91%
    08:00 +19°C° 0.2 mm 1 m/s 738 mmHg 88%
    09:00 +19°C° 0.2 mm 2 m/s 738 mmHg 86%
    10:00 +20°C° 1.1 mm 2 m/s 738 mmHg 82%
    11:00 +20°C° 1.1 mm 2 m/s 739 mmHg 79%
    12:00 +21°C° 1.1 mm 2 m/s 739 mmHg 76%
    13:00 +21°C° 0.3 mm 2 m/s 739 mmHg 78%
    14:00 +20°C° 0.3 mm 2 m/s 739 mmHg 81%
    15:00 +20°C° 0.3 mm 3 m/s 739 mmHg 83%
    16:00 +20°C° 0.1 mm 2 m/s 739 mmHg 82%
    17:00 +20°C° 0.1 mm 2 m/s 739 mmHg 81%
    18:00 +21°C° 0.1 mm 2 m/s 739 mmHg 79%
    19:00 +19°C° 0.3 mm 2 m/s 739 mmHg 83%
    20:00 +18°C° 0.3 mm 2 m/s 739 mmHg 87%
    21:00 +17°C° 0.3 mm 2 m/s 738 mmHg 90%
    22:00 +17°C° 0 mm 2 m/s 739 mmHg 91%
    23:00 +16°C° 0 mm 2 m/s 739 mmHg 91%

    Poimâine, 25 Iulie, Joi

    Timp Temperatura Precipitaţii Vânt Presiune Umiditate
    00:00 +16°C° 0 mm 1 m/s 739 mmHg 92%
    01:00 +16°C° 0 mm 1 m/s 739 mmHg 92%
    02:00 +16°C° 0 mm 1 m/s 739 mmHg 91%
    03:00 +15°C° 0 mm 0 m/s 739 mmHg 91%
    04:00 +15°C° 0 mm 0 m/s 739 mmHg 92%
    05:00 +15°C° 0 mm 0 m/s 739 mmHg 92%
    06:00 +15°C° 0 mm 0 m/s 739 mmHg 92%
    07:00 +18°C° 0 mm 1 m/s 739 mmHg 89%
    08:00 +19°C° 0 mm 1 m/s 739 mmHg 86%
    09:00 +19°C° 0 mm 1 m/s 740 mmHg 83%
    10:00 +19°C° 0.3 mm 2 m/s 740 mmHg 80%
    11:00 +21°C° 0.3 mm 2 m/s 740 mmHg 77%
    12:00 +22°C° 0.3 mm 3 m/s 740 mmHg 73%
    13:00 +22°C° 0.8 mm 3 m/s 740 mmHg 75%
    14:00 +22°C° 0.8 mm 3 m/s 740 mmHg 76%
    15:00 +22°C° 0.8 mm 3 m/s 740 mmHg 78%
    16:00 +22°C° 0.9 mm 3 m/s 740 mmHg 81%
    17:00 +21°C° 0.9 mm 4 m/s 740 mmHg 84%
    18:00 +21°C° 0.9 mm 4 m/s 740 mmHg 87%
    19:00 +20°C° 0.2 mm 4 m/s 740 mmHg 89%
    20:00 +19°C° 0.2 mm 4 m/s 740 mmHg 91%
    21:00 +18°C° 0.2 mm 4 m/s 740 mmHg 93%
    22:00 +17°C° 0 mm 4 m/s 740 mmHg 94%
    23:00 +17°C° 0 mm 3 m/s 740 mmHg 95%

    26 Iulie, Vineri

    Timp Temperatura Precipitaţii Vânt Presiune Umiditate
    00:00 +17°C° 0 mm 3 m/s 740 mmHg 96%
    01:00 +17°C° 0.3 mm 4 m/s 740 mmHg 96%
    02:00 +17°C° 0.3 mm 4 m/s 740 mmHg 96%
    03:00 +17°C° 0.3 mm 4 m/s 740 mmHg 97%
    04:00 +17°C° 0.5 mm 4 m/s 740 mmHg 97%
    05:00 +17°C° 0.5 mm 3 m/s 741 mmHg 97%
    06:00 +17°C° 0.5 mm 3 m/s 741 mmHg 97%
    07:00 +18°C° 0.1 mm 4 m/s 741 mmHg 94%
    08:00 +19°C° 0.1 mm 4 m/s 741 mmHg 92%
    09:00 +20°C° 0.1 mm 5 m/s 741 mmHg 89%
    10:00 +21°C° 0.1 mm 5 m/s 741 mmHg 84%
    11:00 +22°C° 0.1 mm 6 m/s 741 mmHg 79%
    12:00 +24°C° 0.1 mm 6 m/s 741 mmHg 74%
    13:00 +24°C° 0.4 mm 6 m/s 740 mmHg 74%
    14:00 +24°C° 0.4 mm 6 m/s 740 mmHg 75%
    15:00 +24°C° 0.4 mm 6 m/s 740 mmHg 75%
    16:00 +23°C° 0.6 mm 6 m/s 740 mmHg 78%
    17:00 +23°C° 0.6 mm 5 m/s 740 mmHg 81%
    18:00 +22°C° 0.6 mm 4 m/s 740 mmHg 83%
    19:00 +21°C° 0.4 mm 4 m/s 740 mmHg 86%
    20:00 +20°C° 0.4 mm 4 m/s 740 mmHg 88%
    21:00 +19°C° 0.4 mm 3 m/s 740 mmHg 90%
    22:00 +19°C° 0 mm 3 m/s 739 mmHg 91%
    23:00 +18°C° 0 mm 4 m/s 739 mmHg 92%

    27 Iulie, Sâmbătă

    Timp Temperatura Precipitaţii Vânt Presiune Umiditate
    00:00 +18°C° 0 mm 4 m/s 739 mmHg 93%
    01:00 +18°C° 0 mm 4 m/s 739 mmHg 94%
    02:00 +17°C° 0 mm 4 m/s 739 mmHg 95%
    03:00 +17°C° 0 mm 3 m/s 739 mmHg 96%
    04:00 +17°C° 0 mm 4 m/s 739 mmHg 96%
    05:00 +17°C° 0 mm 4 m/s 739 mmHg 95%
    06:00 +17°C° 0 mm 4 m/s 739 mmHg 95%
    07:00 +19°C° 0 mm 4 m/s 739 mmHg 92%
    08:00 +20°C° 0 mm 5 m/s 739 mmHg 88%
    09:00 +21°C° 0 mm 5 m/s 739 mmHg 84%
    10:00 +22°C° 0.2 mm 5 m/s 739 mmHg 80%
    11:00 +23°C° 0.2 mm 6 m/s 738 mmHg 77%
    12:00 +24°C° 0.2 mm 6 m/s 738 mmHg 73%
    13:00 +25°C° 0.3 mm 5 m/s 738 mmHg 71%
    14:00 +26°C° 0.3 mm 5 m/s 738 mmHg 70%
    15:00 +26°C° 0.3 mm 4 m/s 737 mmHg 68%
    16:00 +26°C° 0.2 mm 4 m/s 737 mmHg 71%
    17:00 +26°C° 0.2 mm 3 m/s 737 mmHg 73%
    18:00 +25°C° 0.2 mm 3 m/s 737 mmHg 75%
    19:00 +24°C° 0.1 mm 3 m/s 737 mmHg 80%
    20:00 +21°C° 0.1 mm 3 m/s 737 mmHg 84%
    21:00 +19°C° 0.1 mm 2 m/s 737 mmHg 89%
    22:00 +19°C° 0 mm 2 m/s 736 mmHg 90%
    23:00 +18°C° 0 mm 2 m/s 736 mmHg 91%

    28 Iulie, Duminică

    Timp Temperatura Precipitaţii Vânt Presiune Umiditate
    00:00 +18°C° 0 mm 2 m/s 736 mmHg 92%
    01:00 +18°C° 0 mm 2 m/s 736 mmHg 92%
    02:00 +17°C° 0 mm 3 m/s 735 mmHg 92%
    03:00 +17°C° 0 mm 3 m/s 735 mmHg 93%
    04:00 +17°C° 0 mm 3 m/s 735 mmHg 93%
    05:00 +17°C° 0 mm 4 m/s 735 mmHg 93%
    06:00 +17°C° 0 mm 4 m/s 735 mmHg 93%
    07:00 +16°C° 0.2 mm 5 m/s 735 mmHg 91%
    08:00 +16°C° 0.2 mm 6 m/s 735 mmHg 90%
    09:00 +16°C° 0.2 mm 7 m/s 735 mmHg 89%
    10:00 +16°C° 0 mm 7 m/s 735 mmHg 83%
    11:00 +16°C° 0 mm 7 m/s 736 mmHg 78%
    12:00 +16°C° 0 mm 7 m/s 736 mmHg 73%
    13:00 +16°C° 0 mm 7 m/s 736 mmHg 71%
    14:00 +16°C° 0 mm 7 m/s 736 mmHg 69%
    15:00 +16°C° 0 mm 7 m/s 736 mmHg 66%
    16:00 +15°C° 0 mm 7 m/s 736 mmHg 67%
    17:00 +14°C° 0 mm 7 m/s 737 mmHg 69%
    18:00 +12°C° 0 mm 7 m/s 737 mmHg 70%
    19:00 +11°C° 0 mm 6 m/s 737 mmHg 68%
    20:00 +10°C° 0 mm 5 m/s 737 mmHg 66%
    21:00 +9°C° 0 mm 5 m/s 737 mmHg 64%
    22:00 +10°C° 0 mm 4 m/s 737 mmHg 65%
    23:00 +10°C° 0 mm 4 m/s 737 mmHg 66%
    Arată mai mult